TimePST,TemperatureF,Dew PointF,Humidity,Sea Level PressureIn,VisibilityMPH,Wind Direction,Wind SpeedMPH,Gust SpeedMPH,PrecipitationIn,Events,Conditions,WindDirDegrees,DateUTC
12:53 AM,12.9,8.1,81,30.25,10.0,NW,8.1,-,N/A,,Mostly Cloudy,310,2013-12-04 08:53:00
1:53 AM,15.1,9.0,77,30.26,10.0,West,4.6,-,N/A,,Overcast,260,2013-12-04 09:53:00
2:53 AM,12.9,7.0,77,30.27,10.0,Calm,Calm,-,N/A,,Clear,0,2013-12-04 10:53:00
3:23 AM,12.0,7.0,80,30.21,10.0,NNW,4.6,-,N/A,,Mostly Cloudy,330,2013-12-04 11:23:00
3:53 AM,12.9,9.0,84,30.27,10.0,Calm,Calm,-,N/A,,Overcast,0,2013-12-04 11:53:00
4:00 AM,14.0,9.0,80,30.22,10.0,Calm,Calm,-,N/A,,Overcast,0,2013-12-04 12:00:00
4:28 AM,14.0,9.0,80,30.22,10.0,Calm,Calm,-,N/A,,Overcast,0,2013-12-04 12:28:00
4:53 AM,16.0,10.9,81,30.27,10.0,SW,4.6,-,N/A,,Overcast,220,2013-12-04 12:53:00
5:04 AM,14.0,10.9,88,30.23,10.0,Calm,Calm,-,N/A,,Overcast,0,2013-12-04 13:04:00
5:53 AM,15.1,10.9,84,30.29,10.0,SW,3.5,-,N/A,,Overcast,220,2013-12-04 13:53:00
6:53 AM,12.0,6.1,77,30.31,10.0,NW,3.5,-,N/A,,Overcast,310,2013-12-04 14:53:00
7:12 AM,6.1,3.0,87,30.26,10.0,WNW,6.9,-,N/A,,Scattered Clouds,300,2013-12-04 15:12:00
7:53 AM,10.9,5.0,77,30.32,10.0,WSW,3.5,-,N/A,,Partly Cloudy,240,2013-12-04 15:53:00
8:53 AM,14.0,9.0,80,30.34,10.0,SSE,3.5,-,N/A,,Clear,150,2013-12-04 16:53:00
9:53 AM,16.0,9.0,74,30.35,10.0,South,3.5,-,N/A,,Clear,170,2013-12-04 17:53:00
10:53 AM,18.0,8.1,65,30.36,10.0,WSW,5.8,-,N/A,,Clear,250,2013-12-04 18:53:00
11:53 AM,19.0,9.0,65,30.36,10.0,West,8.1,-,N/A,,Clear,270,2013-12-04 19:53:00
12:53 PM,19.9,10.0,65,30.35,10.0,West,5.8,-,N/A,,Clear,270,2013-12-04 20:53:00
1:53 PM,19.9,10.0,65,30.34,10.0,West,4.6,-,N/A,,Clear,260,2013-12-04 21:53:00
2:53 PM,19.9,9.0,62,30.34,10.0,Calm,Calm,-,N/A,,Clear,0,2013-12-04 22:53:00
3:53 PM,16.0,8.1,71,30.35,10.0,Calm,Calm,-,N/A,,Clear,0,2013-12-04 23:53:00
4:53 PM,12.0,5.0,73,30.35,10.0,East,3.5,-,N/A,,Clear,80,2013-12-05 00:53:00
5:53 PM,10.9,5.0,77,30.36,10.0,SE,6.9,-,N/A,,Clear,140,2013-12-05 01:53:00
6:53 PM,7.0,1.9,80,30.37,10.0,ESE,9.2,-,N/A,,Clear,120,2013-12-05 02:53:00
7:53 PM,7.0,1.9,80,30.38,10.0,ESE,9.2,-,N/A,,Clear,120,2013-12-05 03:53:00
8:53 PM,9.0,1.9,73,30.37,10.0,SSE,10.4,-,N/A,,Clear,150,2013-12-05 04:53:00
9:53 PM,7.0,1.0,77,30.36,10.0,SSE,9.2,-,N/A,,Clear,150,2013-12-05 05:53:00
10:53 PM,7.0,1.0,77,30.37,10.0,SSE,8.1,-,N/A,,Clear,150,2013-12-05 06:53:00
11:53 PM,7.0,1.0,77,30.36,10.0,SE,11.5,-,N/A,,Clear,140,2013-12-05 07:53:00